Time,TemperatureF,DewpointF,PressureIn,WindDirection,WindDirectionDegrees,WindSpeedMPH,WindSpeedGustMPH,Humidity,HourlyPrecipIn,Conditions,Clouds,dailyrainin,SolarRadiationWatts/m^2,SoftwareType,DateUTC
2013-01-27 00:02:00,39.0,23.0,-100.00,NE,46,2.0,5.0,52,0.00,,,0.00,14.000000,,2013-01-27 00:02:00,
2013-01-27 00:11:00,39.0,23.0,-100.00,NE,46,2.0,5.0,52,0.00,,,0.00,14.000000,,2013-01-27 00:11:00,
2013-01-27 00:21:00,39.0,23.0,-100.00,NE,46,2.0,5.0,52,0.00,,,0.00,14.000000,,2013-01-27 00:21:00,
2013-01-27 00:32:00,39.0,23.0,-100.00,NE,46,2.0,5.0,52,0.00,,,0.00,14.000000,,2013-01-27 00:32:00,
2013-01-27 01:01:00,36.0,23.0,-100.00,NE,36,2.0,4.0,59,0.00,,,0.00,0.000000,,2013-01-27 01:01:00,
2013-01-27 01:11:00,36.0,23.0,-100.00,NE,36,2.0,4.0,59,0.00,,,0.00,0.000000,,2013-01-27 01:11:00,
2013-01-27 01:22:00,36.0,23.0,-100.00,NE,36,2.0,4.0,59,0.00,,,0.00,0.000000,,2013-01-27 01:22:00,
2013-01-27 01:32:00,36.0,23.0,-100.00,NE,36,2.0,4.0,59,0.00,,,0.00,0.000000,,2013-01-27 01:32:00,
2013-01-27 01:52:00,34.0,22.0,-100.00,NE,44,3.0,5.0,60,0.00,,,0.00,0.000000,,2013-01-27 01:52:00,
2013-01-27 02:01:00,34.0,22.0,-100.00,NE,44,3.0,5.0,60,0.00,,,0.00,0.000000,,2013-01-27 02:01:00,
2013-01-27 02:12:00,34.0,22.0,-100.00,NE,44,3.0,5.0,60,0.00,,,0.00,0.000000,,2013-01-27 02:12:00,
2013-01-27 02:22:00,34.0,22.0,-100.00,NE,44,3.0,5.0,60,0.00,,,0.00,0.000000,,2013-01-27 02:22:00,
2013-01-27 02:31:00,34.0,22.0,-100.00,NE,44,3.0,5.0,60,0.00,,,0.00,0.000000,,2013-01-27 02:31:00,
2013-01-27 03:02:00,33.0,23.0,-100.00,ENE,59,3.0,5.0,65,0.00,,,0.00,0.000000,,2013-01-27 03:02:00,
2013-01-27 03:11:00,33.0,23.0,-100.00,ENE,59,3.0,5.0,65,0.00,,,0.00,0.000000,,2013-01-27 03:11:00,
2013-01-27 03:21:00,33.0,23.0,-100.00,ENE,59,3.0,5.0,65,0.00,,,0.00,0.000000,,2013-01-27 03:21:00,
2013-01-27 03:32:00,33.0,23.0,-100.00,ENE,59,3.0,5.0,65,0.00,,,0.00,0.000000,,2013-01-27 03:32:00,
2013-01-27 04:02:00,32.0,23.0,-100.00,ENE,67,3.0,6.0,68,0.00,,,0.00,0.000000,,2013-01-27 04:02:00,
2013-01-27 04:11:00,32.0,23.0,-100.00,ENE,67,3.0,6.0,68,0.00,,,0.00,0.000000,,2013-01-27 04:11:00,
2013-01-27 04:21:00,32.0,23.0,-100.00,ENE,67,3.0,6.0,68,0.00,,,0.00,0.000000,,2013-01-27 04:21:00,
2013-01-27 04:32:00,32.0,23.0,-100.00,ENE,67,3.0,6.0,68,0.00,,,0.00,0.000000,,2013-01-27 04:32:00,
2013-01-27 04:52:00,32.0,22.0,-100.00,East,79,4.0,9.0,67,0.00,,,0.00,0.000000,,2013-01-27 04:52:00,
2013-01-27 05:03:00,32.0,22.0,-100.00,East,79,4.0,9.0,67,0.00,,,0.00,0.000000,,2013-01-27 05:03:00,
2013-01-27 05:12:00,32.0,22.0,-100.00,East,79,4.0,9.0,67,0.00,,,0.00,0.000000,,2013-01-27 05:12:00,
2013-01-27 05:22:00,32.0,22.0,-100.00,East,79,4.0,9.0,67,0.00,,,0.00,0.000000,,2013-01-27 05:22:00,
2013-01-27 05:32:00,32.0,22.0,-100.00,East,79,4.0,9.0,67,0.00,,,0.00,0.000000,,2013-01-27 05:32:00,
2013-01-27 06:01:00,31.0,24.0,-100.00,East,90,5.0,8.0,74,0.00,,,0.00,0.000000,,2013-01-27 06:01:00,
2013-01-27 06:11:00,31.0,24.0,-100.00,East,90,5.0,8.0,74,0.00,,,0.00,0.000000,,2013-01-27 06:11:00,
2013-01-27 06:21:00,31.0,24.0,-100.00,East,90,5.0,8.0,74,0.00,,,0.00,0.000000,,2013-01-27 06:21:00,
2013-01-27 06:32:00,31.0,24.0,-100.00,East,90,5.0,8.0,74,0.00,,,0.00,0.000000,,2013-01-27 06:32:00,
2013-01-27 07:01:00,31.0,25.0,-100.00,ESE,110,3.0,10.0,79,0.00,,,0.00,0.000000,,2013-01-27 07:01:00,
2013-01-27 07:14:00,31.0,25.0,-100.00,ESE,110,3.0,10.0,79,0.00,,,0.00,0.000000,,2013-01-27 07:14:00,
2013-01-27 07:21:00,31.0,25.0,-100.00,ESE,110,3.0,10.0,79,0.00,,,0.00,0.000000,,2013-01-27 07:21:00,
2013-01-27 07:31:00,31.0,25.0,-100.00,ESE,110,3.0,10.0,79,0.00,,,0.00,0.000000,,2013-01-27 07:31:00,
2013-01-27 07:52:00,31.0,26.0,-100.00,ESE,105,5.0,10.0,83,0.00,,,0.00,0.000000,,2013-01-27 07:52:00,
2013-01-27 08:01:00,31.0,26.0,-100.00,ESE,105,5.0,10.0,83,0.00,,,0.00,0.000000,,2013-01-27 08:01:00,
2013-01-27 08:11:00,31.0,26.0,-100.00,ESE,105,5.0,10.0,83,0.00,,,0.00,0.000000,,2013-01-27 08:11:00,
2013-01-27 08:22:00,31.0,26.0,-100.00,ESE,105,5.0,10.0,83,0.00,,,0.00,0.000000,,2013-01-27 08:22:00,
2013-01-27 08:31:00,31.0,26.0,-100.00,ESE,105,5.0,10.0,83,0.00,,,0.00,0.000000,,2013-01-27 08:31:00,
2013-01-27 09:02:00,30.0,26.0,-100.00,ESE,114,4.0,10.0,84,0.00,,,0.00,0.000000,,2013-01-27 09:02:00,
2013-01-27 09:11:00,30.0,26.0,-100.00,ESE,114,4.0,10.0,84,0.00,,,0.00,0.000000,,2013-01-27 09:11:00,
2013-01-27 09:21:00,30.0,26.0,-100.00,ESE,114,4.0,10.0,84,0.00,,,0.00,0.000000,,2013-01-27 09:21:00,
2013-01-27 09:32:00,30.0,26.0,-100.00,ESE,114,4.0,10.0,84,0.00,,,0.00,0.000000,,2013-01-27 09:32:00,
2013-01-27 09:52:00,31.0,27.0,-100.00,ESE,114,3.0,8.0,85,0.00,,,0.00,0.000000,,2013-01-27 09:52:00,
2013-01-27 10:01:00,31.0,27.0,-100.00,ESE,114,3.0,8.0,85,0.00,,,0.00,0.000000,,2013-01-27 10:01:00,
2013-01-27 10:11:00,31.0,27.0,-100.00,ESE,114,3.0,8.0,85,0.00,,,0.00,0.000000,,2013-01-27 10:11:00,
2013-01-27 10:21:00,31.0,27.0,-100.00,ESE,114,3.0,8.0,85,0.00,,,0.00,0.000000,,2013-01-27 10:21:00,
2013-01-27 10:31:00,31.0,27.0,-100.00,ESE,114,3.0,8.0,85,0.00,,,0.00,0.000000,,2013-01-27 10:31:00,
2013-01-27 10:52:00,31.0,27.0,-100.00,SE,126,3.0,8.0,86,0.00,,,0.00,0.000000,,2013-01-27 10:52:00,
2013-01-27 11:01:00,31.0,27.0,-100.00,SE,126,3.0,8.0,86,0.00,,,0.00,0.000000,,2013-01-27 11:01:00,
2013-01-27 11:11:00,31.0,27.0,-100.00,SE,126,3.0,8.0,86,0.00,,,0.00,0.000000,,2013-01-27 11:11:00,
2013-01-27 11:21:00,31.0,27.0,-100.00,SE,126,3.0,8.0,86,0.00,,,0.00,0.000000,,2013-01-27 11:21:00,
2013-01-27 11:32:00,31.0,27.0,-100.00,SE,126,3.0,8.0,86,0.00,,,0.00,0.000000,,2013-01-27 11:32:00,
2013-01-27 11:52:00,31.0,27.0,-100.00,East,96,4.0,8.0,86,0.00,,,0.00,0.000000,,2013-01-27 11:52:00,
2013-01-27 12:02:00,31.0,27.0,-100.00,East,96,4.0,8.0,86,0.00,,,0.00,0.000000,,2013-01-27 12:02:00,
2013-01-27 12:12:00,31.0,27.0,-100.00,East,96,4.0,8.0,86,0.00,,,0.00,0.000000,,2013-01-27 12:12:00,
2013-01-27 12:21:00,31.0,27.0,-100.00,East,96,4.0,8.0,86,0.00,,,0.00,0.000000,,2013-01-27 12:21:00,
2013-01-27 12:32:00,31.0,27.0,-100.00,East,96,4.0,8.0,86,0.00,,,0.00,0.000000,,2013-01-27 12:32:00,
2013-01-27 13:02:00,32.0,28.0,-100.00,East,94,3.0,7.0,86,0.00,,,0.00,0.000000,,2013-01-27 13:02:00,
2013-01-27 13:11:00,32.0,28.0,-100.00,East,94,3.0,7.0,86,0.00,,,0.00,0.000000,,2013-01-27 13:11:00,
2013-01-27 13:22:00,32.0,28.0,-100.00,East,94,3.0,7.0,86,0.00,,,0.00,0.000000,,2013-01-27 13:22:00,
2013-01-27 13:32:00,32.0,28.0,-100.00,East,94,3.0,7.0,86,0.00,,,0.00,0.000000,,2013-01-27 13:32:00,
2013-01-27 13:52:00,32.0,28.0,-100.00,ESE,108,4.0,7.0,85,0.00,,,0.00,5.000000,,2013-01-27 13:52:00,
2013-01-27 14:02:00,32.0,28.0,-100.00,ESE,108,4.0,7.0,85,0.00,,,0.00,5.000000,,2013-01-27 14:02:00,
2013-01-27 14:12:00,32.0,28.0,-100.00,ESE,108,4.0,7.0,85,0.00,,,0.00,5.000000,,2013-01-27 14:12:00,
2013-01-27 14:22:00,32.0,28.0,-100.00,ESE,108,4.0,7.0,85,0.00,,,0.00,5.000000,,2013-01-27 14:22:00,
2013-01-27 14:32:00,32.0,28.0,-100.00,ESE,108,4.0,7.0,85,0.00,,,0.00,5.000000,,2013-01-27 14:32:00,
2013-01-27 15:12:00,34.0,30.0,-100.00,ESE,107,3.0,6.0,84,0.00,,,0.00,17.000000,,2013-01-27 15:12:00,
2013-01-27 15:22:00,34.0,30.0,-100.00,ESE,107,3.0,6.0,84,0.00,,,0.00,17.000000,,2013-01-27 15:22:00,
2013-01-27 15:32:00,34.0,30.0,-100.00,ESE,107,3.0,6.0,84,0.00,,,0.00,17.000000,,2013-01-27 15:32:00,
2013-01-27 15:53:00,36.0,30.0,-100.00,SE,131,4.0,9.0,79,0.00,,,-99.99,42.000000,,2013-01-27 15:53:00,
2013-01-27 16:02:00,36.0,30.0,-100.00,SE,131,4.0,9.0,79,0.00,,,-99.99,42.000000,,2013-01-27 16:02:00,
2013-01-27 16:12:00,36.0,30.0,-100.00,SE,131,4.0,9.0,79,0.00,,,-99.99,42.000000,,2013-01-27 16:12:00,
2013-01-27 16:21:00,36.0,30.0,-100.00,SE,131,4.0,9.0,79,0.00,,,-99.99,42.000000,,2013-01-27 16:21:00,
2013-01-27 16:32:00,36.0,30.0,-100.00,SE,131,4.0,9.0,79,0.00,,,-99.99,42.000000,,2013-01-27 16:32:00,
2013-01-27 17:02:00,37.0,34.0,-100.00,SE,126,3.0,8.0,88,0.02,,,0.02,60.000000,,2013-01-27 17:02:00,
2013-01-27 17:12:00,37.0,34.0,-100.00,SE,126,3.0,8.0,88,0.02,,,0.02,60.000000,,2013-01-27 17:12:00,
2013-01-27 17:22:00,37.0,34.0,-100.00,SE,126,3.0,8.0,88,0.02,,,0.02,60.000000,,2013-01-27 17:22:00,
2013-01-27 17:32:00,37.0,34.0,-100.00,SE,126,3.0,8.0,88,0.02,,,0.02,60.000000,,2013-01-27 17:32:00,
2013-01-27 17:53:00,38.0,35.0,-100.00,ESE,119,4.0,9.0,88,0.01,,,0.03,67.000000,,2013-01-27 17:53:00,
2013-01-27 18:02:00,38.0,35.0,-100.00,ESE,119,4.0,9.0,88,0.01,,,0.03,67.000000,,2013-01-27 18:02:00,
2013-01-27 18:12:00,38.0,35.0,-100.00,ESE,119,4.0,9.0,88,0.01,,,0.03,67.000000,,2013-01-27 18:12:00,
2013-01-27 18:22:00,38.0,35.0,-100.00,ESE,119,4.0,9.0,88,0.01,,,0.03,67.000000,,2013-01-27 18:22:00,
2013-01-27 18:32:00,38.0,35.0,-100.00,ESE,119,4.0,9.0,88,0.01,,,0.03,67.000000,,2013-01-27 18:32:00,
2013-01-27 19:02:00,38.0,36.0,-100.00,ESE,105,3.0,7.0,93,0.02,,,0.05,53.000000,,2013-01-27 19:02:00,
2013-01-27 19:12:00,38.0,36.0,-100.00,ESE,105,3.0,7.0,93,0.02,,,0.05,53.000000,,2013-01-27 19:12:00,
2013-01-27 19:22:00,38.0,36.0,-100.00,ESE,105,3.0,7.0,93,0.02,,,0.05,53.000000,,2013-01-27 19:22:00,
2013-01-27 19:32:00,38.0,36.0,-100.00,ESE,105,3.0,7.0,93,0.02,,,0.05,53.000000,,2013-01-27 19:32:00,
2013-01-27 19:52:00,39.0,38.0,-100.00,ESE,122,4.0,8.0,95,0.04,,,0.09,39.000000,,2013-01-27 19:52:00,
2013-01-27 20:02:00,39.0,38.0,-100.00,ESE,122,4.0,8.0,95,0.04,,,0.09,39.000000,,2013-01-27 20:02:00,
2013-01-27 20:12:00,39.0,38.0,-100.00,ESE,122,4.0,8.0,95,0.04,,,0.09,39.000000,,2013-01-27 20:12:00,
2013-01-27 20:22:00,39.0,38.0,-100.00,ESE,122,4.0,8.0,95,0.04,,,0.09,39.000000,,2013-01-27 20:22:00,
2013-01-27 20:32:00,39.0,38.0,-100.00,ESE,122,4.0,8.0,95,0.04,,,0.09,39.000000,,2013-01-27 20:32:00,
2013-01-27 21:02:00,41.0,40.0,-100.00,SE,126,5.0,9.0,96,0.01,,,0.10,47.000000,,2013-01-27 21:02:00,
2013-01-27 21:12:00,41.0,40.0,-100.00,SE,126,5.0,9.0,96,0.01,,,0.10,47.000000,,2013-01-27 21:12:00,
2013-01-27 21:22:00,41.0,40.0,-100.00,SE,126,5.0,9.0,96,0.01,,,0.10,47.000000,,2013-01-27 21:22:00,
2013-01-27 21:33:00,41.0,40.0,-100.00,SE,126,5.0,9.0,96,0.01,,,0.10,47.000000,,2013-01-27 21:33:00,
2013-01-27 22:02:00,42.0,41.0,-100.00,SE,129,5.0,11.0,96,0.00,,,-99.99,34.000000,,2013-01-27 22:02:00,
2013-01-27 22:12:00,42.0,41.0,-100.00,SE,129,5.0,11.0,96,0.00,,,-99.99,34.000000,,2013-01-27 22:12:00,
2013-01-27 22:22:00,42.0,41.0,-100.00,SE,129,5.0,11.0,96,0.00,,,-99.99,34.000000,,2013-01-27 22:22:00,
2013-01-27 22:32:00,42.0,41.0,-100.00,SE,129,5.0,11.0,96,0.00,,,-99.99,34.000000,,2013-01-27 22:32:00,
2013-01-27 22:52:00,44.0,42.0,-100.00,SE,128,5.0,11.0,94,0.00,,,0.10,53.000000,,2013-01-27 22:52:00,
2013-01-27 23:02:00,44.0,42.0,-100.00,SE,128,5.0,11.0,94,0.00,,,0.10,53.000000,,2013-01-27 23:02:00,
2013-01-27 23:12:00,44.0,42.0,-100.00,SE,128,5.0,11.0,94,0.00,,,0.10,53.000000,,2013-01-27 23:12:00,
2013-01-27 23:21:00,44.0,42.0,-100.00,SE,128,5.0,11.0,94,0.00,,,0.10,53.000000,,2013-01-27 23:21:00,
2013-01-27 23:32:00,44.0,42.0,-100.00,SE,128,5.0,11.0,94,0.00,,,0.10,53.000000,,2013-01-27 23:32:00,
2013-01-27 23:53:00,45.0,43.0,-100.00,SE,136,4.0,9.0,93,0.00,,,0.10,8.000000,,2013-01-27 23:53:00,